Location: Meanaryar
(48.4161°N, 4.7315°W)
Time: 17:30:48
(UTC+00:00)

Cosmos 1707 - Pass Details

Date: 18 September 2020
Orbit: 515 x 530 km, 82.5° (Epoch: 30 October)

Event Time Altitude Azimuth Distance (km) Brightness Sun altitude
Rises 19:15:13 0° 355° (N) 2,655 6.6 -9.2°
Reaches altitude 10° 19:17:27 10° 2° (N) 1,760 5.5 -9.5°
Maximum altitude 19:21:10 45° 76° (ENE) 711 3.0 -10.1°
Drops below altitude 10° 19:24:51 10° 151° (SSE) 1,741 5.0 -10.7°
Enters shadow 19:25:53 - 154° (SSE) 2,154 5.5 -10.9°
